TimeCDT,TemperatureF,Dew PointF,Humidity,Sea Level PressureIn,VisibilityMPH,Wind Direction,Wind SpeedMPH,Gust SpeedMPH,PrecipitationIn,Events,Conditions,WindDirDegrees,DateUTC
12:56 AM,79.9,75.9,88,29.99,10.0,South,6.9,-,0.00,,Clear,190,2013-07-10 05:56:00
1:56 AM,79.9,75.9,88,29.99,10.0,South,5.8,-,N/A,,Clear,190,2013-07-10 06:56:00
2:56 AM,77.9,75.9,94,29.99,10.0,South,5.8,-,N/A,,Clear,170,2013-07-10 07:56:00
3:56 AM,77.0,75.9,96,29.98,10.0,South,5.8,-,N/A,,Clear,170,2013-07-10 08:56:00
4:56 AM,75.9,75.9,100,29.97,10.0,South,6.9,-,N/A,,Clear,170,2013-07-10 09:56:00
5:56 AM,77.0,75.9,96,29.96,10.0,SSE,8.1,-,N/A,,Clear,160,2013-07-10 10:56:00
6:56 AM,79.0,75.9,90,29.95,10.0,South,10.4,-,N/A,,Clear,180,2013-07-10 11:56:00
7:56 AM,81.0,75.9,85,29.98,10.0,SSW,10.4,-,N/A,,Mostly Cloudy,210,2013-07-10 12:56:00
8:56 AM,82.9,77.0,82,29.97,10.0,SW,10.4,-,N/A,,Mostly Cloudy,220,2013-07-10 13:56:00
9:56 AM,84.9,77.9,79,29.95,10.0,WSW,9.2,-,N/A,,Scattered Clouds,240,2013-07-10 14:56:00
10:56 AM,88.0,77.0,70,29.94,10.0,West,11.5,-,N/A,,Partly Cloudy,270,2013-07-10 15:56:00
11:56 AM,86.9,77.0,72,29.98,10.0,West,8.1,-,N/A,,Partly Cloudy,260,2013-07-10 16:56:00
12:42 PM,86.0,77.0,74,30.01,10.0,NW,13.8,-,N/A,,Mostly Cloudy,320,2013-07-10 17:42:00
12:56 PM,82.9,77.9,85,29.99,4.0,NW,16.1,28.8,0.01,Rain-Thunderstorm,Thunderstorms and Rain,310,2013-07-10 17:56:00
1:56 PM,81.0,73.9,79,29.95,10.0,North,8.1,-,0.08,,Mostly Cloudy,350,2013-07-10 18:56:00
2:56 PM,82.9,72.0,69,29.92,10.0,NNE,9.2,-,N/A,,Mostly Cloudy,20,2013-07-10 19:56:00
3:31 PM,82.4,71.6,70,29.91,10.0,ENE,8.1,-,N/A,,Scattered Clouds,70,2013-07-10 20:31:00
3:56 PM,82.9,70.0,65,29.88,10.0,South,6.9,-,N/A,,Partly Cloudy,190,2013-07-10 20:56:00
4:56 PM,84.9,72.0,65,29.90,10.0,SSW,6.9,-,N/A,,Clear,210,2013-07-10 21:56:00
5:56 PM,84.9,72.0,65,29.90,10.0,NNW,3.5,-,N/A,,Mostly Cloudy,340,2013-07-10 22:56:00
6:56 PM,86.0,72.9,65,29.90,10.0,West,3.5,-,N/A,,Scattered Clouds,270,2013-07-10 23:56:00
7:56 PM,81.9,73.9,77,29.91,10.0,South,5.8,-,N/A,,Clear,170,2013-07-11 00:56:00
8:56 PM,77.9,73.9,88,29.94,10.0,South,5.8,-,N/A,,Partly Cloudy,180,2013-07-11 01:56:00
9:56 PM,74.8,73.9,97,29.95,10.0,SSE,5.8,-,N/A,,Partly Cloudy,160,2013-07-11 02:56:00
10:56 PM,73.9,72.9,96,29.94,10.0,SSE,4.6,-,N/A,,Clear,160,2013-07-11 03:56:00
11:56 PM,72.9,72.9,100,29.95,10.0,South,5.8,-,N/A,,Clear,190,2013-07-11 04:56:00